﻿測定場所 (Monitoring sites),日付 (Measurement date),時間 (Measurement time),線量率 最大値 (max) μGy/h,線量率 最小値 (min) μGy/h,線量率 平均値 (average) μGy/h,
江東 (Koto),2021-07-04,22:01～23:00,0.0389,0.0350,0.0371,
江東 (Koto),2021-07-04,21:01～22:00,0.0391,0.0352,0.0371,
江東 (Koto),2021-07-04,20:01～21:00,0.0401,0.0350,0.0374,
江東 (Koto),2021-07-04,19:01～20:00,0.0396,0.0364,0.0381,
江東 (Koto),2021-07-04,18:01～19:00,0.0411,0.0364,0.0384,
江東 (Koto),2021-07-04,17:01～18:00,0.0416,0.0360,0.0383,
江東 (Koto),2021-07-04,16:01～17:00,0.0399,0.0358,0.0381,
江東 (Koto),2021-07-04,15:01～16:00,0.0397,0.0366,0.0381,
江東 (Koto),2021-07-04,14:01～15:00,0.0414,0.0357,0.0382,
江東 (Koto),2021-07-04,13:01～14:00,0.0412,0.0351,0.0377,
江東 (Koto),2021-07-04,12:01～13:00,0.0395,0.0350,0.0375,
江東 (Koto),2021-07-04,11:01～12:00,0.0395,0.0361,0.0379,
江東 (Koto),2021-07-04,10:01～11:00,0.0412,0.0359,0.0388,
江東 (Koto),2021-07-04,09:01～10:00,0.0478,0.0395,0.0434,
江東 (Koto),2021-07-04,08:01～09:00,0.0493,0.0453,0.0472,
江東 (Koto),2021-07-04,07:01～08:00,0.0481,0.0392,0.0443,
江東 (Koto),2021-07-04,06:01～07:00,0.0436,0.0370,0.0396,
江東 (Koto),2021-07-04,05:01～06:00,0.0411,0.0361,0.0381,
江東 (Koto),2021-07-04,04:01～05:00,0.0422,0.0371,0.0394,
江東 (Koto),2021-07-04,03:01～04:00,0.0414,0.0368,0.0390,
江東 (Koto),2021-07-04,02:01～03:00,0.0398,0.0354,0.0376,
江東 (Koto),2021-07-04,01:01～02:00,0.0384,0.0343,0.0365,
江東 (Koto),2021-07-04,00:01～01:00,0.0382,0.0343,0.0365,
江東 (Koto),2021-07-03,22:01～23:00,0.0388,0.0352,0.0369,
江東 (Koto),2021-07-03,21:01～22:00,0.0394,0.0347,0.0367,
江東 (Koto),2021-07-03,20:01～21:00,0.0384,0.0349,0.0365,
江東 (Koto),2021-07-03,19:01～20:00,0.0391,0.0351,0.0370,
江東 (Koto),2021-07-03,18:01～19:00,0.0381,0.0350,0.0367,
江東 (Koto),2021-07-03,17:01～18:00,0.0395,0.0350,0.0367,
江東 (Koto),2021-07-03,16:01～17:00,0.0391,0.0352,0.0368,
江東 (Koto),2021-07-03,15:01～16:00,0.0391,0.0347,0.0367,
江東 (Koto),2021-07-03,14:01～15:00,0.0390,0.0341,0.0367,
江東 (Koto),2021-07-03,13:01～14:00,0.0391,0.0348,0.0367,
江東 (Koto),2021-07-03,12:01～13:00,0.0384,0.0343,0.0368,
江東 (Koto),2021-07-03,11:01～12:00,0.0400,0.0356,0.0376,
江東 (Koto),2021-07-03,10:01～11:00,0.0428,0.0367,0.0401,
江東 (Koto),2021-07-03,09:01～10:00,0.0479,0.0406,0.0444,
江東 (Koto),2021-07-03,08:01～09:00,0.0493,0.0447,0.0474,
江東 (Koto),2021-07-03,07:01～08:00,0.0495,0.0443,0.0467,
江東 (Koto),2021-07-03,06:01～07:00,0.0515,0.0447,0.0481,
江東 (Koto),2021-07-03,05:01～06:00,0.0522,0.0471,0.0496,
江東 (Koto),2021-07-03,04:01～05:00,0.0511,0.0456,0.0481,
江東 (Koto),2021-07-03,03:01～04:00,0.0478,0.0392,0.0428,
江東 (Koto),2021-07-03,02:01～03:00,0.0456,0.0392,0.0423,
江東 (Koto),2021-07-03,01:01～02:00,0.0483,0.0410,0.0439,
江東 (Koto),2021-07-03,00:01～01:00,0.0445,0.0395,0.0421,
江東 (Koto),2021-07-02,22:01～23:00,0.0439,0.0379,0.0406,
江東 (Koto),2021-07-02,21:01～22:00,0.0428,0.0375,0.0400,
江東 (Koto),2021-07-02,20:01～21:00,0.0414,0.0366,0.0386,
江東 (Koto),2021-07-02,19:01～20:00,0.0409,0.0358,0.0381,
江東 (Koto),2021-07-02,18:01～19:00,0.0404,0.0357,0.0380,
江東 (Koto),2021-07-02,17:01～18:00,0.0402,0.0362,0.0381,
江東 (Koto),2021-07-02,16:01～17:00,0.0403,0.0360,0.0384,
江東 (Koto),2021-07-02,15:01～16:00,0.0419,0.0361,0.0394,
江東 (Koto),2021-07-02,14:01～15:00,0.0450,0.0379,0.0409,
江東 (Koto),2021-07-02,13:01～14:00,0.0443,0.0397,0.0420,
江東 (Koto),2021-07-02,12:01～13:00,0.0439,0.0399,0.0420,
江東 (Koto),2021-07-02,11:01～12:00,0.0446,0.0405,0.0427,
江東 (Koto),2021-07-02,10:01～11:00,0.0460,0.0400,0.0427,
江東 (Koto),2021-07-02,09:01～10:00,0.0436,0.0398,0.0417,
江東 (Koto),2021-07-02,08:01～09:00,0.0440,0.0387,0.0413,
江東 (Koto),2021-07-02,07:01～08:00,0.0440,0.0398,0.0419,
江東 (Koto),2021-07-02,06:01～07:00,0.0444,0.0343,0.0414,
江東 (Koto),2021-07-02,05:01～06:00,0.0427,0.0383,0.0407,
江東 (Koto),2021-07-02,04:01～05:00,0.0428,0.0375,0.0405,
江東 (Koto),2021-07-02,03:01～04:00,0.0429,0.0377,0.0404,
江東 (Koto),2021-07-02,02:01～03:00,0.0418,0.0368,0.0390,
江東 (Koto),2021-07-02,01:01～02:00,0.0412,0.0363,0.0383,
江東 (Koto),2021-07-02,00:01～01:00,0.0416,0.0369,0.0390,
江東 (Koto),2021-07-01,22:01～23:00,0.0433,0.0371,0.0407,
江東 (Koto),2021-07-01,21:01～22:00,0.0426,0.0375,0.0402,
江東 (Koto),2021-07-01,20:01～21:00,0.0416,0.0367,0.0390,
江東 (Koto),2021-07-01,19:01～20:00,0.0402,0.0367,0.0385,
江東 (Koto),2021-07-01,18:01～19:00,0.0412,0.0361,0.0387,
江東 (Koto),2021-07-01,17:01～18:00,0.0403,0.0357,0.0379,
江東 (Koto),2021-07-01,16:01～17:00,0.0384,0.0346,0.0366,
江東 (Koto),2021-07-01,15:01～16:00,0.0384,0.0349,0.0366,
江東 (Koto),2021-07-01,14:01～15:00,0.0387,0.0351,0.0366,
江東 (Koto),2021-07-01,13:01～14:00,0.0388,0.0341,0.0367,
江東 (Koto),2021-07-01,12:01～13:00,0.0409,0.0355,0.0376,
江東 (Koto),2021-07-01,11:01～12:00,0.0419,0.0360,0.0395,
江東 (Koto),2021-07-01,10:01～11:00,0.0436,0.0384,0.0400,
江東 (Koto),2021-07-01,09:01～10:00,0.0434,0.0383,0.0403,
江東 (Koto),2021-07-01,08:01～09:00,0.0426,0.0384,0.0407,
江東 (Koto),2021-07-01,07:01～08:00,0.0439,0.0386,0.0414,
江東 (Koto),2021-07-01,06:01～07:00,0.0426,0.0384,0.0404,
江東 (Koto),2021-07-01,05:01～06:00,0.0441,0.0391,0.0413,
江東 (Koto),2021-07-01,04:01～05:00,0.0440,0.0392,0.0416,
江東 (Koto),2021-07-01,03:01～04:00,0.0436,0.0386,0.0406,
江東 (Koto),2021-07-01,02:01～03:00,0.0423,0.0364,0.0390,
江東 (Koto),2021-07-01,01:01～02:00,0.0398,0.0338,0.0371,
江東 (Koto),2021-07-01,00:01～01:00,0.0408,0.0337,0.0369,
江東 (Koto),2021-06-30,22:01～23:00,0.0388,0.0345,0.0369,
江東 (Koto),2021-06-30,21:01～22:00,0.0386,0.0343,0.0368,
江東 (Koto),2021-06-30,20:01～21:00,0.0392,0.0345,0.0367,
江東 (Koto),2021-06-30,19:01～20:00,0.0395,0.0339,0.0373,
江東 (Koto),2021-06-30,18:01～19:00,0.0393,0.0351,0.0374,
江東 (Koto),2021-06-30,17:01～18:00,0.0389,0.0350,0.0370,
江東 (Koto),2021-06-30,16:01～17:00,0.0389,0.0343,0.0368,
江東 (Koto),2021-06-30,15:01～16:00,0.0388,0.0343,0.0366,
江東 (Koto),2021-06-30,14:01～15:00,0.0391,0.0339,0.0367,
江東 (Koto),2021-06-30,13:01～14:00,0.0384,0.0349,0.0366,
江東 (Koto),2021-06-30,12:01～13:00,0.0392,0.0345,0.0365,
江東 (Koto),2021-06-30,11:01～12:00,0.0385,0.0343,0.0366,
江東 (Koto),2021-06-30,10:01～11:00,0.0382,0.0343,0.0365,
江東 (Koto),2021-06-30,09:01～10:00,0.0391,0.0345,0.0367,
江東 (Koto),2021-06-30,08:01～09:00,0.0386,0.0348,0.0368,
江東 (Koto),2021-06-30,07:01～08:00,0.0388,0.0344,0.0368,
江東 (Koto),2021-06-30,06:01～07:00,0.0394,0.0347,0.0366,
江東 (Koto),2021-06-30,05:01～06:00,0.0384,0.0339,0.0366,
江東 (Koto),2021-06-30,04:01～05:00,0.0391,0.0343,0.0368,
江東 (Koto),2021-06-30,03:01～04:00,0.0389,0.0349,0.0367,
江東 (Koto),2021-06-30,02:01～03:00,0.0405,0.0355,0.0375,
江東 (Koto),2021-06-30,01:01～02:00,0.0419,0.0372,0.0388,
江東 (Koto),2021-06-30,00:01～01:00,0.0423,0.0368,0.0397,
江東 (Koto),2021-06-29,22:01～23:00,0.0463,0.0405,0.0429,
江東 (Koto),2021-06-29,21:01～22:00,0.0464,0.0409,0.0433,
江東 (Koto),2021-06-29,20:01～21:00,0.0433,0.0345,0.0393,
江東 (Koto),2021-06-29,19:01～20:00,0.0394,0.0355,0.0373,
江東 (Koto),2021-06-29,18:01～19:00,0.0399,0.0350,0.0375,
江東 (Koto),2021-06-29,17:01～18:00,0.0391,0.0352,0.0371,
江東 (Koto),2021-06-29,16:01～17:00,0.0405,0.0355,0.0374,
江東 (Koto),2021-06-29,15:01～16:00,0.0390,0.0350,0.0371,
江東 (Koto),2021-06-29,14:01～15:00,0.0395,0.0352,0.0371,
江東 (Koto),2021-06-29,13:01～14:00,0.0390,0.0347,0.0370,
江東 (Koto),2021-06-29,12:01～13:00,0.0398,0.0346,0.0371,
江東 (Koto),2021-06-29,11:01～12:00,0.0396,0.0346,0.0371,
江東 (Koto),2021-06-29,10:01～11:00,0.0401,0.0355,0.0380,
江東 (Koto),2021-06-29,09:01～10:00,0.0411,0.0370,0.0390,
江東 (Koto),2021-06-29,08:01～09:00,0.0420,0.0364,0.0394,
江東 (Koto),2021-06-29,07:01～08:00,0.0426,0.0384,0.0406,
江東 (Koto),2021-06-29,06:01～07:00,0.0439,0.0396,0.0418,
江東 (Koto),2021-06-29,05:01～06:00,0.0443,0.0382,0.0408,
江東 (Koto),2021-06-29,04:01～05:00,0.0438,0.0387,0.0411,
江東 (Koto),2021-06-29,03:01～04:00,0.0438,0.0396,0.0418,
江東 (Koto),2021-06-29,02:01～03:00,0.0440,0.0384,0.0415,
江東 (Koto),2021-06-29,01:01～02:00,0.0443,0.0397,0.0418,
江東 (Koto),2021-06-29,00:01～01:00,0.0439,0.0387,0.0412,
江東 (Koto),2021-06-28,22:01～23:00,0.0405,0.0352,0.0377,
江東 (Koto),2021-06-28,21:01～22:00,0.0389,0.0353,0.0373,
江東 (Koto),2021-06-28,20:01～21:00,0.0405,0.0347,0.0376,
江東 (Koto),2021-06-28,19:01～20:00,0.0401,0.0352,0.0375,
江東 (Koto),2021-06-28,18:01～19:00,0.0395,0.0353,0.0372,
江東 (Koto),2021-06-28,17:01～18:00,0.0393,0.0349,0.0370,
江東 (Koto),2021-06-28,16:01～17:00,0.0393,0.0348,0.0372,
江東 (Koto),2021-06-28,15:01～16:00,0.0390,0.0352,0.0373,
江東 (Koto),2021-06-28,14:01～15:00,0.0399,0.0350,0.0376,
江東 (Koto),2021-06-28,13:01～14:00,0.0394,0.0348,0.0376,
江東 (Koto),2021-06-28,12:01～13:00,0.0398,0.0354,0.0377,
江東 (Koto),2021-06-28,11:01～12:00,0.0402,0.0356,0.0376,
江東 (Koto),2021-06-28,10:01～11:00,0.0400,0.0350,0.0375,
江東 (Koto),2021-06-28,09:01～10:00,0.0402,0.0350,0.0374,
江東 (Koto),2021-06-28,08:01～09:00,0.0399,0.0353,0.0373,
江東 (Koto),2021-06-28,07:01～08:00,0.0396,0.0356,0.0375,
江東 (Koto),2021-06-28,06:01～07:00,0.0395,0.0350,0.0374,
江東 (Koto),2021-06-28,05:01～06:00,0.0400,0.0360,0.0377,
江東 (Koto),2021-06-28,04:01～05:00,0.0400,0.0357,0.0376,
江東 (Koto),2021-06-28,03:01～04:00,0.0395,0.0358,0.0375,
江東 (Koto),2021-06-28,02:01～03:00,0.0390,0.0348,0.0375,
江東 (Koto),2021-06-28,01:01～02:00,0.0402,0.0356,0.0374,
江東 (Koto),2021-06-28,00:01～01:00,0.0392,0.0350,0.0373,
